EHI
27 29 30 31 32 36 38 37 37 41 44 44 41 33 23 16 12 10 6 4 6 6 5 4 4 3 2 2 1 0 0 0 0 0 0 0 0 0 0 0 0 0 0
25 26 28 27 26 28 28 28 31 35 38 39 34 26 18 12 8 5 3 2 4 5 4 2 1 1 1 1 0 0 0 0 0 0 0 0 0 0 0 0 0 0 0
22 23 22 19 18 18 17 18 23 27 30 30 26 18 13 8 4 1 0 1 2 3 3 1 0 0 0 0 0 0 0 0 0 0 0 0 0 0 0 0 0 0 0
20 19 16 13 13 13 13 14 17 21 22 21 18 14 9 6 2 0 0 0 1 2 3 2 1 0 0 0 0 0 0 0 0 0 0 0 0 0 0 0 0 0 0
16 15 12 10 11 11 11 12 14 15 15 13 11 8 5 2 1 0 0 0 0 1 2 2 1 0 0 0 0 0 0 0 0 0 0 0 0 0 0 0 0 0 0
11 10 9 9 9 8 8 10 11 11 10 7 5 3 1 0 0 0 0 0 0 0 1 1 0 0 0 0 0 0 0 0 0 0 0 0 0 0 0 0 0 0 0
7 7 7 7 8 7 7 8 8 7 6 4 3 1 0 0 0 0 0 0 0 0 0 0 0 0 0 0 0 0 0 0 0 0 0 0 0 0 0 0 0 0 0
5 4 4 5 6 6 7 7 5 4 4 3 2 1 0 0 0 0 0 0 0 0 0 0 0 0 0 0 0 0 0 0 0 0 0 0 0 0 0 0 0 0 0
2 1 1 2 4 5 4 4 3 2 2 2 2 1 0 0 0 0 0 0 0 0 0 0 0 0 0 0 0 0 0 0 0 0 0 0 0 0 0 0 0 0 0
0 0 0 1 2 2 2 1 1 1 1 1 1 0 0 0 0 0 0 0 0 0 0 0 0 0 0 0 0 0 0 0 0 0 0 0 0 0 0 0 0 0 0
0 0 0 0 1 1 1 0 0 0 0 0 0 0 0 0 0 0 0 0 0 0 0 0 0 0 0 0 0 0 0 0 0 0 0 0 0 0 0 0 0 0 0
0 0 0 0 0 0 0 0 0 0 0 0 0 0 0 0 0 0 0 0 0 0 0 0 0 0 0 0 0 0 0 0 0 0 0 0 0 0 0 0 0 0 0
0 0 0 0 0 0 0 0 0 0 0 0 0 0 0 0 0 0 0 0 0 0 0 0 0 0 0 0 0 0 0 0 0 0 0 0 0 0 0 0 0 0 0
0 0 0 0 0 0 0 0 0 0 0 0 0 0 0 0 0 0 0 0 0 0 0 0 0 0 0 0 0 0 0 0 0 0 0 0 0 0 0 0 0 0 0
0 0 0 0 0 0 0 0 0 0 0 0 0 0 0 0 0 0 0 0 0 0 0 0 0 0 0 0 0 0 0 0 0 0 0 0 0 0 0 0 0 0 0
0 0 0 0 0 0 0 0 0 0 0 0 0 0 0 0 0 0 0 0 0 0 0 0 0 0 0 0 0 0 0 0 0 0 0 0 0 0 0 0 0 0 0
0 0 0 0 0 0 0 0 0 0 0 0 0 0 0 0 0 0 0 0 0 0 0 0 0 0 0 0 0 0 0 0 0 0 0 0 0 0 0 0 0 0 0
0 0 0 0 0 0 0 0 0 0 0 0 0 0 0 0 0 0 0 0 0 0 0 0 0 0 0 0 0 0 0 0 0 0 0 0 0 0 0 0 0 0 0
0 0 0 0 0 0 0 0 0 0 0 0 0 0 0 0 0 0 0 0 0 0 0 0 0 0 0 0 0 0 0 0 0 0 0 0 0 0 0 0 0 0 0
0 0 0 0 0 0 0 0 0 0 0 0 0 0 0 0 0 0 0 0 0 0 0 0 0 0 0 0 0 0 0 0 0 0 0 0 0 0 0 0 0 0 0
0 0 0 0 0 0 0 0 0 0 0 0 0 0 0 0 0 0 0 0 0 0 0 0 0 0 0 0 0 0 0 0 0 0 0 0 0 0 0 0 0 0 0
0 0 0 0 0 0 0 0 0 0 0 0 0 0 0 0 0 0 0 0 0 0 0 0 0 0 0 0 0 0 0 0 0 0 0 0 0 0 0 0 0 0 0
0 0 0 0 0 0 0 0 0 0 0 0 0 0 0 0 0 0 0 0 0 0 0 0 0 0 0 0 0 0 0 0 0 0 0 0 0 0 0 0 0 0 0
0 0 0 0 0 0 0 0 0 0 0 0 0 0 0 0 0 0 0 0 0 0 0 0 0 0 0 0 0 0 0 0 0 0 0 0 0 0 0 0 0 0 0
0 0 0 0 0 0 0 0 0 0 0 0 0 0 0 0 0 0 0 0 0 0 0 0 0 0 0 0 0 0 0 0 0 0 0 0 0 0 0 0 0 0 0
0 0 0 0 0 0 0 0 0 0 0 0 0 0 0 0 0 0 0 0 0 0 0 0 0 0 0 0 0 0 0 0 0 0 0 0 0 0 0 0 0 0 0
Wind_Speed
7 8 9 9 7 5 5 4 5 4 5 5 5 5 5 5 5 5 6 6 5 5 5 4 4 4 4 3 3 2 4 3 2 2 2 3 3 4 3 3 3 4 4
9 9 9 9 7 7 6 5 4 3 3 4 4 5 6 6 5 5 7 8 7 6 5 6 5 4 4 5 4 3 2 2 3 2 2 1 3 4 4 4 4 4 3
9 9 10 9 8 7 6 5 4 4 4 5 6 7 6 5 5 6 6 8 8 8 8 8 6 6 6 5 5 4 3 2 3 3 2 2 1 1 2 4 4 4 4
9 9 9 8 7 7 6 5 5 5 5 6 7 8 7 6 5 5 6 8 9 9 8 8 8 7 6 6 6 6 4 4 3 3 3 3 2 1 1 2 3 4 4
9 9 9 7 7 8 7 7 7 7 7 8 9 10 9 8 7 7 8 8 8 9 8 8 8 8 7 7 7 7 7 5 4 3 2 3 4 3 2 2 3 3 3
9 10 9 8 8 8 7 7 9 10 10 10 10 11 12 11 10 9 8 6 6 6 9 9 8 7 7 7 7 7 8 7 7 6 5 4 3 2 3 2 2 2 3
8 9 10 9 9 9 9 9 11 11 11 12 12 11 11 11 11 9 8 7 6 6 7 7 7 6 6 7 7 7 7 7 7 6 5 5 4 2 2 2 1 2 2
9 9 9 9 9 10 10 10 11 11 11 12 11 10 10 8 8 9 8 7 6 6 6 7 7 7 7 7 7 6 6 6 7 8 6 5 4 4 3 2 2 2 3
10 10 9 10 10 11 10 10 11 12 12 12 12 12 11 11 10 9 8 7 6 6 7 7 8 8 7 7 7 6 6 6 6 6 6 5 4 4 3 3 2 2 1
10 10 9 10 10 10 10 10 11 12 11 10 10 10 10 10 9 8 8 8 7 6 7 8 8 8 8 8 7 5 5 6 5 4 6 5 3 4 4 3 3 2 2
10 9 9 9 9 9 9 10 10 11 11 11 10 10 9 9 9 8 8 7 7 7 8 8 8 8 8 7 6 6 6 6 6 5 5 5 4 4 4 3 3 3 1
10 10 9 9 9 9 9 9 9 10 10 10 10 9 9 8 8 8 7 7 7 7 7 7 7 7 7 6 6 6 5 5 5 4 4 4 3 4 3 3 3 2 1
11 10 9 9 9 9 9 9 9 8 8 9 9 9 8 8 7 7 6 7 7 7 7 7 7 6 6 6 6 5 5 5 4 3 3 3 3 3 2 2 2 2 2
10 10 9 9 8 8 8 9 8 7 8 8 8 8 7 7 6 6 6 6 6 7 6 6 6 5 5 5 5 5 5 5 4 4 3 2 1 1 2 2 3 2 3
11 10 9 8 7 7 7 7 7 6 7 7 7 6 6 6 6 6 6 6 6 6 5 5 4 4 4 4 4 4 5 5 5 5 4 3 1 1 2 2 3 2 2
11 10 9 9 7 7 7 7 6 5 6 6 6 5 5 6 5 5 5 5 5 5 5 5 4 4 3 5 7 5 4 4 4 4 5 4 2 4 6 8 7 5 3
11 10 9 7 7 6 6 6 5 5 6 5 5 4 4 5 4 4 4 4 3 3 4 3 3 3 3 6 8 8 3 3 3 4 3 3 2 3 4 7 9 8 9
10 8 7 7 6 5 4 4 4 5 5 4 4 4 4 4 4 4 3 2 2 2 2 2 2 1 2 5 7 8 5 4 4 4 3 2 3 3 4 5 6 6 6
9 7 6 6 5 5 4 5 5 4 5 4 4 4 4 4 3 3 2 1 1 1 1 2 3 1 1 3 6 7 4 4 5 5 4 3 3 5 6 5 6 8 7
8 7 5 5 5 4 5 6 5 5 4 4 4 4 4 3 3 2 1 0 1 1 2 2 2 2 1 2 4 6 3 4 5 5 5 6 5 8 8 4 4 6 7
8 7 6 5 4 4 6 6 5 4 4 4 4 3 3 2 2 1 1 1 1 1 1 1 1 1 1 2 5 6 2 2 4 4 5 5 10 12 11 6 4 7 8
8 7 6 5 4 5 6 6 4 3 3 3 3 2 2 2 2 2 2 2 2 2 2 1 1 1 1 2 5 8 7 4 2 4 5 7 13 13 10 6 6 9 6
7 6 6 5 4 4 6 5 3 3 3 3 2 1 2 2 2 3 3 3 3 3 2 2 1 2 2 3 6 8 8 8 3 4 9 11 12 9 6 8 10 7 3
7 6 6 6 4 4 4 4 3 3 3 2 1 0 1 2 2 2 3 3 2 2 2 2 1 1 2 3 4 4 5 7 6 6 9 11 9 7 7 7 6 4 3
5 5 6 6 5 4 3 3 2 3 2 1 1 1 1 2 2 2 1 2 2 3 3 2 1 1 1 3 5 4 4 5 5 5 4 4 4 5 5 5 5 5 5
5 5 5 5 5 4 3 3 3 3 2 1 1 1 1 2 2 2 1 1 1 2 3 3 3 2 3 6 8 9 10 10 6 2 3 3 4 4 4 4 5 4 5
Wind_Direction
76 69 65 65 64 70 89 112 139 150 142 135 131 122 106 91 79 71 64 67 71 76 82 87 74 71 76 69 65 80 67 42 17 66 46 30 43 54 46 44 49 45 42
70 64 63 62 59 66 64 60 72 92 107 119 119 110 107 96 84 68 57 49 54 58 69 73 71 65 69 57 47 60 82 45 30 75 91 36 14 32 39 40 51 45 38
78 68 70 65 59 53 48 42 33 64 68 101 110 109 100 89 79 64 57 48 51 58 62 62 66 61 65 61 46 44 75 80 38 42 92 122 164 345 8 38 39 35 35
81 76 77 72 61 55 55 50 38 49 62 87 109 114 114 107 91 84 75 61 54 56 61 65 69 67 65 62 54 47 50 72 61 40 41 72 100 107 18 9 14 23 35
83 76 70 70 62 57 53 54 52 54 58 75 95 102 102 102 99 89 79 70 60 56 59 60 64 65 64 63 59 56 56 57 61 52 40 46 46 46 83 25 346 355 7
77 70 62 57 59 55 53 56 61 62 64 73 80 95 104 107 104 98 91 78 69 60 59 63 62 62 63 62 60 59 59 59 61 57 53 55 55 35 57 64 353 344 336
78 73 65 59 58 57 55 61 69 66 66 74 77 84 92 95 98 99 96 91 80 70 61 65 63 62 62 62 60 60 56 55 59 57 55 56 54 49 62 73 22 350 330
73 69 64 64 65 62 61 66 71 72 71 76 78 77 81 86 86 87 92 88 85 80 72 69 67 64 63 63 58 59 56 55 55 54 51 52 42 43 49 70 73 27 351
78 74 68 64 65 66 63 70 77 78 75 77 80 79 81 86 89 88 88 88 84 82 73 70 66 61 59 59 58 58 54 55 54 51 49 48 35 39 43 51 75 101 37
85 78 74 73 72 72 72 71 75 79 79 79 82 87 83 86 89 90 85 83 78 77 77 71 67 61 56 56 58 54 50 53 44 49 51 47 35 33 34 39 47 78 130
96 88 82 80 81 79 77 77 77 80 80 81 83 85 83 84 84 84 82 81 77 75 77 74 70 64 56 51 53 51 50 52 43 40 48 44 42 36 27 29 35 40 79
102 96 92 87 82 81 81 82 81 83 85 87 86 84 82 80 80 80 79 79 78 75 78 77 72 68 61 51 49 44 45 49 44 36 39 30 38 35 24 29 24 12 24
106 99 94 90 87 87 87 86 85 85 87 89 89 86 83 81 80 79 77 77 80 79 81 81 75 67 60 52 44 42 42 37 33 30 30 16 39 24 7 11 1 339 347
109 105 98 94 90 87 89 91 90 91 93 92 91 88 86 85 83 79 76 79 85 87 86 86 81 71 58 48 35 34 36 23 13 6 2 357 20 343 331 331 324 321 326
115 111 106 101 97 93 91 92 93 91 96 95 92 91 92 88 81 76 77 78 82 92 96 93 81 70 61 41 35 24 24 12 0 352 348 339 347 4 342 324 305 307 303
124 118 113 108 102 100 100 99 98 96 96 97 97 96 92 88 85 84 82 79 80 86 93 94 89 69 52 33 32 30 14 359 352 341 338 339 6 2 356 346 335 321 297
130 124 120 116 111 107 107 109 108 105 103 105 105 101 99 97 95 94 85 86 90 96 103 110 103 84 30 26 21 18 19 356 340 329 325 331 339 352 337 335 334 327 316
129 123 119 114 109 110 110 108 104 108 110 109 110 109 109 104 99 95 97 102 104 110 124 135 137 117 11 19 19 17 21 9 351 335 314 304 302 303 324 325 323 315 307
126 122 121 117 113 116 117 107 100 104 106 107 109 110 108 104 104 102 105 113 113 118 151 160 164 157 322 348 14 26 11 2 348 338 336 320 294 298 318 320 318 317 310
124 125 120 110 110 113 108 100 100 103 108 111 111 110 106 108 114 130 148 140 141 156 158 160 186 188 238 320 2 23 12 357 343 336 333 323 308 306 311 292 292 304 303
128 124 119 116 121 115 105 104 108 114 124 116 105 100 106 123 139 122 58 75 84 92 111 141 215 216 232 329 357 9 10 337 327 325 320 313 317 316 313 297 253 262 279
125 123 120 122 122 116 112 111 116 125 113 104 98 94 96 107 111 91 52 52 64 64 58 66 25 349 351 20 11 14 14 2 315 306 306 308 317 322 326 321 305 306 308
128 125 126 124 119 121 120 120 140 130 110 102 98 86 74 81 92 96 81 59 57 64 57 71 53 5 4 4 10 7 0 357 336 299 305 314 328 340 343 337 341 346 347
131 128 124 123 125 131 133 145 158 138 122 131 153 118 101 86 84 89 96 92 82 77 74 75 70 21 343 342 344 341 337 340 338 330 323 331 348 3 352 347 349 350 335
134 132 135 142 151 151 154 170 165 136 133 173 223 205 156 146 134 113 115 133 161 168 152 157 158 144 315 304 321 325 321 319 311 322 336 356 354 353 349 344 343 346 355
139 140 148 156 163 162 179 204 193 168 163 193 227 216 183 171 158 146 69 23 179 165 159 177 185 235 256 301 323 327 325 324 322 1 1 345 342 342 344 344 343 348 352